W0GEN-13 Weather Reports


time (UTC)temp
F
wind
direction
speed
knots
gust
knots
rain 1hr
in
rain 24hr
in
rain mn
in
humidity
%
barometer
mb
20190519094031 57 249 16.5 20.9 0.00 1.29 0.00 100 996.3
20190519093531 59 244 13.0 17.4 0.00 1.29 0.00 100 996.0
20190519093030 60 194 15.6 17.4 0.00 1.29 0.00 100 996.0
20190519092531 60 219 15.6 16.5 0.00 1.29 0.00 100 996.0
20190519092030 60 215 7.0 16.5 0.00 1.29 0.00 100 996.0
20190519091531 60 207 13.0 17.4 0.00 1.29 0.00 100 996.1
20190519091031 60 185 8.7 17.4 0.00 1.29 0.00 100 996.3
20190519090531 60 213 13.9 16.5 0.00 1.29 0.00 100 996.2
20190519090031 60 190 8.7 17.4 0.00 1.29 0.00 100 996.1
20190519085531 60 207 14.8 18.2 0.00 1.29 0.00 100 996.4
20190519085031 60 185 12.2 18.2 0.00 1.29 0.00 100 996.3
20190519084530 60 173 16.5 16.5 0.00 1.29 0.00 100 996.3
20190519084034 60 207 9.6 18.2 0.00 1.29 0.00 100 996.3
20190519083531 60 196 6.1 18.2 0.00 1.29 0.00 100 996.3
20190519083030 60 202 7.0 18.2 0.00 1.29 0.00 100 996.3
20190519082531 60 170 7.8 19.1 0.00 1.29 0.00 100 996.3
20190519082031 60 180 11.3 19.1 0.00 1.29 0.00 100 996.3
20190519081531 60 156 6.1 18.2 0.00 1.29 0.00 100 996.3
20190519081030 61 154 8.7 18.2 0.00 1.29 0.00 100 996.2
20190519080531 61 161 11.3 16.5 0.00 1.29 0.00 100 996.3
20190519080034 62 168 9.6 24.3 0.00 1.29 0.00 100 996.3
20190519075530 62 164 10.4 24.3 0.00 1.29 0.00 100 996.5
20190519075031 63 175 7.0 13.9 0.00 1.29 0.00 100 996.4
20190519074530 63 155 10.4 15.6 0.00 1.29 0.00 100 996.4
20190519074030 63 143 3.5 15.6 0.00 1.29 0.00 100 996.4
20190519073531 63 133 5.2 11.3 0.00 1.29 0.00 100 996.3
20190519073030 63 117 8.7 13.0 0.00 1.29 0.00 100 996.4
20190519072530 63 131 5.2 13.0 0.00 1.29 0.00 100 996.4
20190519072031 63 163 4.3 10.4 0.00 1.29 0.00 100 996.6
20190519071530 63 147 3.5 10.4 0.00 1.29 0.00 100 996.7
20190519071031 63 159 4.3 13.9 0.00 1.29 0.00 100 996.8
20190519070530 63 137 6.1 13.9 0.00 1.29 0.00 100 996.9
20190519070031 63 112 2.6 11.3 0.00 1.29 0.00 100 997.0
20190519065531 63 144 5.2 11.3 0.00 1.29 0.00 100 997.4
20190519065030 63 105 3.5 11.3 0.00 1.29 0.00 100 997.5
20190519064531 63 146 7.8 13.9 0.00 1.29 0.00 100 997.7
20190519064031 63 170 5.2 17.4 0.00 1.29 0.00 100 997.9
20190519063531 63 127 7.0 17.4 0.00 1.29 0.00 100 997.9
20190519063030 63 144 4.3 14.8 0.00 1.29 0.00 100 997.9
20190519062530 63 151 6.1 13.9 0.00 1.29 0.00 100 998.0
20190519062030 63 109 6.1 13.9 0.00 1.29 0.00 100 998.1
20190519061530 63 118 11.3 13.9 0.00 1.29 0.00 100 998.2
20190519061030 63 107 9.6 13.0 0.00 1.29 0.00 100 998.3
20190519060530 63 144 3.5 12.2 0.00 1.29 0.00 100 998.3
20190519060031 62 70 1.7 13.9 0.00 1.29 0.00 100 998.4
20190519055531 62 116 7.0 13.9 0.00 1.29 0.00 100 998.5
20190519055031 62 121 4.3 11.3 0.00 1.29 0.00 100 998.3
20190519054530 62 77 1.7 11.3 0.00 1.29 0.00 100 998.4
20190519054030 62 98 2.6 9.6 0.00 1.29 0.00 100 998.4
20190519053531 62 98 6.1 11.3 0.00 1.29 0.00 100 998.4
20190519053031 62 90 4.3 13.0 0.00 1.29 0.00 100 998.4
20190519052530 62 69 2.6 13.0 0.00 1.29 0.00 100 998.4
20190519052032 62 80 7.8 12.2 0.00 1.29 0.00 100 998.6
20190519051531 62 93 4.3 12.2 0.00 1.29 0.00 100 998.7
20190519051031 62 90 4.3 12.2 0.00 1.29 0.00 100 998.7
20190519050531 62 69 2.6 7.8 0.00 1.29 0.00 100 998.9
20190519050031 62 84 1.7 7.8 0.00 1.29 0.00 100 998.9
20190519045530 62 55 1.7 7.8 0.01 1.29 1.29 100 998.8
20190519045031 62 56 4.3 10.4 0.01 1.29 1.29 100 998.9
20190519044531 62 57 6.1 13.0 0.02 1.29 1.29 100 999.1
20190519044035 62 55 7.8 14.8 0.02 1.29 1.29 100 998.9
20190519043530 63 52 4.3 14.8 0.02 1.29 1.29 100 999.0
20190519043030 63 55 10.4 13.9 0.03 1.29 1.29 100 999.1
20190519042530 63 38 7.0 13.9 0.03 1.29 1.29 100 999.1
20190519042031 63 37 7.0 13.9 0.03 1.29 1.29 100 999.0
20190519041530 63 30 11.3 13.0 0.03 1.29 1.29 100 999.3
20190519041030 63 67 9.6 10.4 0.03 1.29 1.29 100 999.6
20190519040530 63 44 7.8 10.4 0.03 1.29 1.29 100 999.8
20190519040031 63 49 6.1 10.4 0.03 1.29 1.29 100 999.8
20190519035530 63 33 5.2 8.7 0.02 1.28 1.28 100 999.5
20190519035030 62 28 4.3 10.4 0.03 1.28 1.28 100 999.7
20190519034530 62 48 2.6 10.4 0.02 1.27 1.27 100 999.6
20190519034031 62 43 6.1 8.7 0.02 1.27 1.27 100 999.6
20190519033531 62 50 6.1 8.7 0.03 1.27 1.27 100 999.7
20190519033030 62 44 3.5 8.7 0.02 1.26 1.26 100 1000.0
20190519032531 62 55 6.1 8.7 0.03 1.26 1.26 100 1000.3
20190519032030 62 65 8.7 8.7 0.03 1.26 1.26 100 1000.4
20190519031530 62 47 4.3 8.7 0.04 1.26 1.26 100 1000.5
20190519031030 62 31 3.5 10.4 0.04 1.26 1.26 100 1000.5
20190519030531 62 41 2.6 10.4 0.04 1.26 1.26 100 1000.6
20190519030031 62 85 4.3 10.4 0.05 1.26 1.26 100 1000.8
20190519025530 62 72 3.5 9.6 0.05 1.26 1.26 100 1000.5
20190519025030 62 65 9.6 9.6 0.04 1.25 1.25 100 1000.7
20190519024532 62 55 0.0 6.1 0.05 1.25 1.25 100 1000.7
20190519024031 62 47 3.5 6.1 0.06 1.25 1.25 100 1000.7
20190519023530 62 42 3.5 7.0 0.06 1.24 1.24 100 1000.8
20190519023031 62 42 2.6 8.7 0.07 1.24 1.24 100 1000.7
20190519022530 62 38 6.1 8.7 0.07 1.23 1.23 100 1000.9
20190519022030 63 55 4.3 9.6 0.10 1.23 1.23 100 1000.8
20190519021531 63 44 5.2 9.6 0.11 1.22 1.22 100 1001.0
20190519021030 63 80 4.3 8.7 0.14 1.22 1.22 100 1001.5
20190519020530 63 88 7.8 8.7 0.16 1.22 1.22 100 1001.8
20190519020030 63 81 2.6 4.3 0.18 1.21 1.21 100 1001.7
20190519015530 63 76 3.5 4.3 0.20 1.21 1.21 100 1001.5
20190519015030 63 69 2.6 5.2 0.22 1.21 1.21 100 1001.7
20190519014530 63 55 2.6 5.2 0.23 1.20 1.20 100 1001.7
20190519014031 62 16 3.5 4.3 0.24 1.19 1.19 100 1001.7
20190519013530 62 246 0.0 2.6 0.25 1.18 1.18 100 1001.8
20190519013031 63 236 2.6 3.5 0.25 1.17 1.17 100 1001.9
20190519012531 63 236 2.6 3.5 0.26 1.16 1.16 100 1002.1
20190519012030 63 211 1.7 3.5 0.24 1.13 1.13 100 1002.3
20190519011531 63 220 2.6 3.5 0.24 1.11 1.11 100 1002.5
20190519011030 63 218 1.7 3.5 0.24 1.08 1.08 100 1002.7
20190519010530 63 174 0.9 4.3 0.27 1.06 1.06 100 1002.8
20190519010031 63 164 1.7 5.2 0.36 1.03 1.03 100 1003.0
20190519005530 63 209 4.3 5.2 0.63 1.01 1.01 100 1002.7
20190519005031 63 207 5.2 5.2 0.77 0.99 0.99 100 1002.7
20190519004530 63 205 2.6 7.0 0.87 0.97 0.97 100 1002.7
20190519004033 63 223 4.3 8.7 0.89 0.95 0.95 100 1002.4
20190519003531 64 260 7.0 8.7 0.90 0.93 0.93 100 1002.4
20190519003030 64 258 5.2 8.7 0.90 0.92 0.92 100 1002.4
20190519002531 64 252 8.7 8.7 0.89 0.90 0.90 100 1002.3
20190519002030 64 259 5.2 7.8 0.88 0.89 0.89 100 1002.3
20190519001530 64 255 7.0 8.7 0.86 0.87 0.87 100 1002.4
20190519001030 64 248 6.1 10.4 0.83 0.84 0.84 100 1002.4
20190519000530 64 221 8.7 17.4 0.78 0.79 0.79 100 1002.4
20190519000030 64 250 7.0 20.0 0.66 0.67 0.67 100 1002.6
20190518235534 65 160 10.4 20.0 0.37 0.38 0.38 100 1002.9
20190518235030 66 171 9.6 13.9 0.21 0.22 0.22 100 1002.8
20190518234530 67 155 11.3 13.9 0.09 0.10 0.10 100 1002.6
20190518234031 68 146 10.4 14.8 0.05 0.06 0.06 100 1001.8
20190518233530 69 236 7.8 18.2 0.02 0.03 0.03 100 1001.4
20190518233031 72 209 5.2 18.2 0.01 0.02 0.02 100 1001.8
20190518232530 73 219 13.0 13.9 0.00 0.01 0.01 100 1001.6
20190518232030 73 157 3.5 10.4 0.00 0.01 0.01 100 1001.3
20190518231530 74 148 3.5 10.4 0.00 0.01 0.01 100 1001.2
20190518231030 74 144 5.2 7.0 0.00 0.01 0.01 100 1001.0
20190518230531 74 152 2.6 6.1 0.00 0.01 0.01 100 1001.0
20190518230030 74 182 4.3 7.0 0.00 0.01 0.01 100 1001.1
20190518225531 75 155 1.7 7.8 0.00 0.01 0.01 1 1001.0
20190518225031 75 176 7.0 11.3 0.00 0.01 0.01 4 1000.9
20190518224530 75 146 2.6 11.3 0.00 0.01 0.01 8 1001.0
20190518224030 75 134 4.3 7.8 0.00 0.01 0.01 10 1001.3
20190518223530 76 150 7.8 7.8 0.00 0.01 0.01 13 1001.5
20190518223031 76 145 5.2 7.8 0.00 0.01 0.01 15 1001.6
20190518222531 76 146 4.3 7.8 0.00 0.01 0.01 14 1001.3
20190518222030 76 170 2.6 10.4 0.00 0.01 0.01 15 1001.1
20190518221531 77 111 3.5 10.4 0.00 0.01 0.01 15 1001.2
20190518221030 77 152 3.5 7.0 0.00 0.01 0.01 12 1000.9
20190518220530 77 150 3.5 11.3 0.00 0.01 0.01 14 1001.1
20190518220030 77 142 4.3 12.2 0.00 0.01 0.01 16 1001.2
20190518215530 77 153 2.6 12.2 0.00 0.01 0.01 19 1001.4
20190518215030 77 160 4.3 12.2 0.00 0.01 0.01 21 1001.6
20190518214530 77 158 2.6 10.4 0.00 0.01 0.01 24 1001.7
20190518214030 78 125 5.2 13.9 0.00 0.01 0.01 25 1001.8
20190518213530 78 151 4.3 14.8 0.00 0.01 0.01 25 1001.8
20190518213030 78 159 10.4 14.8 0.00 0.01 0.01 26 1002.0
20190518212530 78 137 2.6 12.2 0.00 0.01 0.01 23 1002.0
20190518212030 78 147 9.6 12.2 0.00 0.01 0.01 25 1002.2
20190518211530 78 169 5.2 15.6 0.00 0.01 0.01 23 1002.2
20190518211030 78 140 3.5 15.6 0.00 0.01 0.01 16 1002.1
20190518210530 78 196 8.7 14.8 0.00 0.01 0.01 22 1002.0
20190518210031 78 141 2.6 14.8 0.00 0.01 0.01 13 1001.9
20190518205531 78 116 6.1 13.9 0.00 0.01 0.01 10 1001.9
20190518205030 78 159 6.1 15.6 0.00 0.01 0.01 11 1002.0
20190518204530 78 144 8.7 15.6 0.00 0.01 0.01 13 1002.0
20190518204030 77 166 15.6 15.6 0.00 0.01 0.01 1 1002.1
20190518203530 77 151 7.8 15.6 0.00 0.01 0.01 7 1002.2
20190518203030 77 124 8.7 15.6 0.00 0.01 0.01 13 1002.3
20190518202530 77 174 6.1 14.8 0.00 0.01 0.01 4 1002.4
20190518202030 77 130 6.1 18.2 0.00 0.01 0.01 100 1002.4
20190518201530 77 134 5.2 18.2 0.00 0.01 0.01 13 1002.5
20190518201030 77 155 5.2 17.4 0.00 0.01 0.01 9 1002.4
20190518200530 76 169 10.4 17.4 0.00 0.01 0.01 10 1002.3
20190518200030 76 130 7.8 15.6 0.00 0.01 0.01 1 1002.3
20190518195530 76 142 9.6 19.1 0.00 0.01 0.01 100 1002.4
20190518195030 76 153 9.6 19.1 0.00 0.01 0.01 1 1002.6
20190518194530 76 146 6.1 13.9 0.00 0.01 0.01 9 1002.6
20190518194031 76 146 10.4 18.2 0.00 0.01 0.01 3 1002.5
20190518193530 77 120 10.4 18.2 0.00 0.01 0.01 11 1002.3
20190518193030 78 146 11.3 17.4 0.00 0.01 0.01 7 1002.0
20190518192530 78 155 13.9 17.4 0.00 0.01 0.01 12 1002.1
20190518192030 79 170 4.3 17.4 0.00 0.01 0.01 9 1002.1
20190518191530 78 160 7.8 17.4 0.00 0.01 0.01 8 1002.0
20190518191030 77 121 6.1 13.9 0.00 0.01 0.01 100 1002.0
20190518190530 77 137 4.3 13.9 0.00 0.01 0.01 11 1002.2
20190518190030 77 180 5.2 13.9 0.00 0.01 0.01 7 1002.1
20190518185530 77 140 2.6 19.1 0.00 0.01 0.01 7 1002.1
20190518185030 77 190 10.4 19.1 0.00 0.01 0.01 3 1002.0
20190518184530 77 183 8.7 16.5 0.00 0.01 0.01 100 1002.1
20190518184031 76 157 3.5 15.6 0.00 0.01 0.01 100 1002.1
20190518183530 75 151 8.7 20.0 0.00 0.01 0.01 100 1002.1
20190518183030 75 110 15.6 20.0 0.00 0.01 0.01 100 1002.1
20190518182530 75 161 7.0 16.5 0.00 0.01 0.01 100 1002.0
20190518182030 74 144 9.6 16.5 0.00 0.01 0.01 100 1001.8
20190518181530 74 131 11.3 18.2 0.00 0.01 0.01 100 1001.8
20190518181030 74 123 8.7 19.1 0.00 0.01 0.01 100 1001.6
20190518180530 74 92 13.0 19.1 0.00 0.01 0.01 100 1001.7
20190518180030 74 179 5.2 14.8 0.00 0.01 0.01 100 1001.9
20190518175530 74 146 9.6 13.9 0.00 0.01 0.01 100 1001.8
20190518175030 74 164 5.2 15.6 0.00 0.01 0.01 100 1001.7
20190518174530 73 138 5.2 15.6 0.00 0.01 0.01 100 1001.8
20190518174030 73 126 7.8 15.6 0.00 0.02 0.01 100 1001.8
20190518173530 73 163 13.0 13.9 0.00 0.02 0.01 100 1001.8
20190518173030 73 150 3.5 13.9 0.00 0.02 0.01 100 1002.1
20190518172530 72 130 5.2 10.4 0.00 0.02 0.01 100 1002.1
20190518172030 72 142 3.5 19.1 0.00 0.02 0.01 100 1001.9
20190518171530 71 146 4.3 19.1 0.00 0.02 0.01 100 1001.8
20190518171030 71 152 5.2 17.4 0.00 0.02 0.01 100 1001.7
20190518170530 70 172 5.2 17.4 0.00 0.02 0.01 100 1001.5
20190518170031 69 87 1.7 19.1 0.00 0.02 0.01 100 1001.4
20190518165530 69 166 9.6 19.1 0.00 0.02 0.01 100 1001.5
20190518165030 69 177 7.0 22.6 0.00 0.02 0.01 100 1001.5
20190518164530 68 137 7.8 22.6 0.00 0.02 0.01 100 1001.6
20190518164030 68 163 6.1 15.6 0.00 0.03 0.01 100 1001.4
20190518163530 67 167 2.6 15.6 0.00 0.03 0.01 100 1001.7
20190518163031 66 124 5.2 15.6 0.00 0.03 0.01 100 1001.7
20190518162533 65 144 6.1 15.6 0.00 0.04 0.01 100 1001.6
20190518162030 65 125 9.6 14.8 0.00 0.05 0.01 100 1001.2
20190518161530 64 148 6.1 14.8 0.00 0.05 0.01 100 1001.5
20190518161030 62 97 13.0 17.4 0.00 0.06 0.01 100 1001.4
20190518160530 62 131 7.8 17.4 0.00 0.06 0.01 100 1001.5
20190518160030 61 130 12.2 16.5 0.00 0.07 0.01 100 1001.2
20190518155530 60 115 4.3 20.0 0.00 0.07 0.01 100 1001.1
20190518155030 60 111 14.8 20.0 0.00 0.08 0.01 100 1000.9
20190518154530 60 103 4.3 18.2 0.00 0.08 0.01 100 1001.1
20190518154030 61 123 13.0 19.1 0.00 0.09 0.01 100 1001.5
20190518153530 61 136 7.8 23.5 0.00 0.10 0.01 100 1002.2
20190518153030 61 99 19.1 23.5 0.00 0.10 0.01 100 1002.0
20190518152530 60 72 3.5 18.2 0.00 0.11 0.01 100 1002.6
20190518152030 59 78 2.6 13.0 0.00 0.12 0.01 100 1002.3
20190518151533 58 92 9.6 15.6 0.00 0.12 0.01 100 1002.3
20190518151030 58 131 3.5 15.6 0.00 0.13 0.01 100 1002.2
20190518150530 57 109 13.9 13.9 0.00 0.13 0.01 100 1001.9
20190518150030 57 109 6.1 10.4 0.00 0.13 0.01 100 1003.0
20190518145530 56 154 6.1 9.6 0.00 0.14 0.01 100 1003.3
20190518145030 55 146 7.0 9.6 0.00 0.14 0.01 100 1003.3
20190518144531 55 90 4.3 8.7 0.00 0.14 0.01 100 1003.4
20190518144031 55 110 4.3 11.3 0.00 0.14 0.01 100 1004.0
20190518143530 55 90 7.8 11.3 0.00 0.14 0.01 100 1004.4
20190518143030 54 125 6.1 11.3 0.00 0.14 0.01 100 1004.5
20190518142530 54 168 5.2 11.3 0.00 0.14 0.01 100 1004.5
20190518142030 54 146 4.3 12.2 0.01 0.14 0.01 100 1004.4
20190518141530 53 141 3.5 13.0 0.01 0.14 0.01 100 1004.3
20190518141030 53 112 8.7 14.8 0.01 0.14 0.01 100 1004.2
20190518140530 53 142 3.5 14.8 0.01 0.14 0.01 100 1004.4
20190518140030 52 117 2.6 11.3 0.01 0.14 0.01 100 1004.3
20190518135530 52 136 1.7 12.2 0.01 0.14 0.01 100 1004.3
20190518135030 52 146 4.3 12.2 0.01 0.14 0.01 100 1004.2
20190518134530 52 117 3.5 11.3 0.01 0.14 0.01 100 1004.1
20190518134030 52 121 3.5 9.6 0.01 0.14 0.01 100 1004.1
20190518133530 52 156 1.7 12.2 0.01 0.14 0.01 100 1004.1
20190518133030 52 146 7.0 12.2 0.01 0.14 0.01 100 1004.2
20190518132530 51 119 3.5 10.4 0.01 0.14 0.01 100 1004.2
20190518132030 51 78 2.6 11.3 0.00 0.13 0.00 100 1004.2
20190518131530 51 132 6.1 11.3 0.00 0.13 0.00 100 1004.5
20190518131030 51 130 7.0 11.3 0.00 0.13 0.00 100 1004.2
20190518130530 50 122 3.5 9.6 0.00 0.13 0.00 100 1004.4
20190518130030 50 116 4.3 9.6 0.00 0.13 0.00 100 1004.5
20190518125530 49 122 4.3 8.7 0.00 0.13 0.00 100 1004.6
20190518125030 49 114 6.1 10.4 0.00 0.13 0.00 100 1004.5
20190518124530 49 108 7.8 10.4 0.00 0.13 0.00 100 1004.6
20190518124030 49 113 7.8 12.2 0.00 0.13 0.00 100 1004.5
20190518123530 49 109 6.1 12.2 0.00 0.13 0.00 100 1004.5
20190518123030 49 85 6.1 12.2 0.00 0.13 0.00 100 1004.4
20190518122530 49 119 9.6 12.2 0.00 0.13 0.00 100 1004.5
20190518122030 49 104 7.0 10.4 0.00 0.13 0.00 100 1004.3
20190518121530 49 92 4.3 11.3 0.00 0.13 0.00 100 1004.6
20190518121030 49 123 6.1 13.0 0.00 0.13 0.00 100 1004.8
20190518120530 49 134 4.3 14.8 0.00 0.13 0.00 100 1004.6
20190518120030 49 95 7.8 14.8 0.00 0.13 0.00 100 1004.4
20190518115530 49 90 7.0 13.0 0.00 0.13 0.00 100 1004.6
20190518115030 49 111 8.7 13.0 0.00 0.13 0.00 100 1004.3
20190518114530 49 84 7.0 19.1 0.00 0.13 0.00 100 1004.4
20190518114030 49 121 3.5 19.1 0.00 0.13 0.00 100 1004.5
20190518113530 49 91 13.0 19.1 0.00 0.13 0.00 100 1004.4
20190518113030 49 107 10.4 14.8 0.00 0.13 0.00 100 1004.3
20190518112530 49 86 7.8 16.5 0.00 0.13 0.00 100 1004.4
20190518112030 49 101 7.8 16.5 0.00 0.13 0.00 100 1004.5
20190518111530 49 126 9.6 15.6 0.00 0.13 0.00 100 1004.5
20190518111030 49 96 13.0 15.6 0.00 0.13 0.00 100 1004.3
20190518110530 49 121 4.3 14.8 0.00 0.13 0.00 100 1004.5
20190518110030 49 119 10.4 14.8 0.00 0.13 0.00 100 1004.6
20190518105530 49 92 9.6 14.8 0.00 0.13 0.00 100 1004.5
20190518105030 49 105 6.1 18.2 0.00 0.13 0.00 100 1004.6
20190518104530 49 78 3.5 18.2 0.00 0.14 0.00 100 1004.6
20190518104030 49 86 6.1 16.5 0.00 0.15 0.00 100 1004.6
20190518103530 49 100 7.0 13.9 0.00 0.15 0.00 100 1004.6
20190518103030 49 148 7.8 14.8 0.00 0.16 0.00 100 1004.7
20190518102530 49 105 10.4 14.8 0.00 0.17 0.00 100 1004.7
20190518102033 49 85 7.0 14.8 0.00 0.18 0.00 100 1004.6
20190518101530 49 107 11.3 20.0 0.00 0.19 0.00 100 1004.6
20190518101030 49 106 9.6 20.0 0.00 0.21 0.00 100 1004.8
20190518100530 50 71 11.3 16.5 0.00 0.23 0.00 100 1005.0
20190518100030 50 104 10.4 19.1 0.00 0.25 0.00 100 1005.1
20190518095530 50 88 0.9 19.1 0.00 0.26 0.00 100 1004.8
20190518095030 50 122 10.4 16.5 0.00 0.27 0.00 100 1005.3
20190518094530 50 108 10.4 14.8 0.00 0.29 0.00 100 1005.1